Terminal Aerodrome Forecast
Issued by NWS

Home | Current Version | Previous Version | Text Only | Print | Product List | Glossary On
Versions: 1 2 3 4 5 6 7 8 9 10 11 12 13 14 15 16 17 18 19 20
000
FTAK31 PAJN 301100
TAFAGY
TAF
PAGY 301135Z 3012/3112 00000KT P6SM BCFG VCSH BKN010 OVC040
     FM301500 21008KT P6SM VCSH SCT025 OVC050
     FM302100 21013G18KT P6SM VCSH OVC050
     FM310600 21009KT P6SM VCSH SCT040 OVC060
     FM310900 21006KT P6SM -SHRA SCT025 OVC050
      AMD LTD TO CLD VIS AND WIND=

USA.gov is the U.S. government's official web portal to all federal, state and local government web resources and services.